Weather Roundup
Issued by NWS

Home | Current Version | Previous Version | Text Only | Print | Product List | Glossary On
Versions: 1 2 3 4 5 6 7 8 9 10 11 12 13 14 15 16 17 18 19 20 21 22 23 24 25 26 27 28 29 30 31 32 33 34 35 36 37 38 39 40 41 42 43 44 45 46 47 48 49 50
000
NZUS93 KARX 301310
HRRWXR

CURRENT HOURLY OBSERVATIONS ACROSS
MUCH OF THE UPPER MISSISSIPPI VALLEY
NATIONAL WEATHER SERVICE LA CROSSE WI
800 AM CDT TUE JUN 30 2015


...SOUTHEAST MINNESOTA...


CITY           SKY/WX    TMP DP  RH WIND       PRES   REMARKS
ROCHESTER      MOSUNNY   63  60  90 N8        29.92R FOG
ROCHESTER/MAYO FAIR      62  62 100 CALM      29.91R
WINONA         CLOUDY    61  61 100 CALM      29.90R FOG
AUSTIN         SUNNY     63  61  94 N7        29.91R FOG
ALBERT LEA     SUNNY     64  63  94 N6        29.92R FOG
DODGE CENTER   MOSUNNY   64  63  94 N7        29.92R FOG
PRESTON        MOSUNNY   61  58  91 N7        29.91R
OWATONNA       CLOUDY    63  61  94 CALM      29.93R FOG
FARIBAULT      MOSUNNY   64  63  94 N6        29.93R FOG
$$

...ELSEWHERE IN MINNESOTA...


CITY           SKY/WX    TMP DP  RH WIND       PRES   REMARKS
MINNEAPOLIS    MOSUNNY   65  61  87 N6        29.92R
INTNL FALLS    MOSUNNY   58  51  78 E7        30.00R
DULUTH         CLOUDY    56  53  90 E10       29.97R
RED WING       MOSUNNY   63  63 100 CALM      29.90R
REDWOOD FALLS  SUNNY     65  61  87 CALM      29.95R FOG
MANKATO        SUNNY     64  61  88 N7        29.93R
WORTHINGTON    MOSUNNY   63  59  88 NW5       29.97S
FAIRMONT       SUNNY     64  59  82 N9        29.94R
$$

...SOUTHWEST WISCONSIN...


CITY           SKY/WX    TMP DP  RH WIND       PRES   REMARKS
LA CROSSE      CLOUDY    62  60  93 N6        29.89R FOG
PRAIRIE DU CHI SUNNY     61  60  96 CALM      29.86S
BOSCOBEL       PTSUNNY   62  60  93 CALM      29.86F FOG
LONE ROCK      CLOUDY    61  59  93 N3        29.86S
PLATTEVILLE    SUNNY     62  61  96 NW3       29.86S
FORT MC COY    CLOUDY    58  57  98 CALM      29.90R FOG
CAMP DOUGLAS   CLOUDY    59  59 100 W5        29.88R FOG
VIROQUA        CLOUDY    60  60 100 N8        29.89R
WIS DELLS      CLOUDY    59  58  95 N7        29.87R FOG
$$

...ELSEWHERE IN WISCONSIN...


CITY           SKY/WX    TMP DP  RH WIND       PRES   REMARKS
MILWAUKEE      PTSUNNY   64  58  80 NW9       29.79R
MADISON        CLOUDY    62  59  90 NW5       29.84R FOG
GREEN BAY      CLOUDY    64  61  90 N13       29.81S
EAU CLAIRE     PTSUNNY   63  59  87 N5        29.90S
BLACK RVR FLS  CLOUDY    60  60 100 N5        29.90R
MEDFORD        CLOUDY    60  57  91 N9        29.90R
WAUSAU         CLOUDY    62  56  80 N7G20     29.87R
WIS RAPIDS     MOSUNNY   63  58  83 NW7       29.88R
MARSHFIELD     MOSUNNY   64  57  78 N10       29.88R
RICE LAKE      CLOUDY    62  58  88 N7        29.94R
$$

...NORTHEAST IOWA...


CITY           SKY/WX    TMP DP  RH WIND       PRES   REMARKS
DECORAH          N/A    N/A N/A N/A MISG        N/A
MASON CITY     CLOUDY    66  64  93 NW8       29.92R FOG
CHARLES CITY   SUNNY     63  63 100 NW3       29.91R
OELWEIN        SUNNY     64  61  88 N5        29.89R
$$

...ELSEWHERE IN IOWA...


CITY           SKY/WX    TMP DP  RH WIND       PRES   REMARKS
DES MOINES     CLOUDY    69  62  78 NW9       29.91R HAZE
IOWA CITY      SUNNY     67  62  84 N3        29.87R
FORT DODGE     MOSUNNY   64  61  88 NW6       29.94R
$$

...NORTHERN ILLINOIS...


CITY           SKY/WX    TMP DP  RH WIND       PRES   REMARKS
CHICAGO-OHARE  MOSUNNY   64  60  87 W7        29.81R
CHICAGO-MIDWAY MOSUNNY   68  62  81 W6        29.81R
MOLINE         PTSUNNY   69  63  81 NW5       29.86R
ROCKFORD       PTSUNNY   64  60  87 N7        29.85R FOG
PEORIA         SUNNY     71  65  81 CALM      29.86R
$$

NOTE: "FAIR" INDICATES FEW OR NO CLOUDS BELOW 12,000 FEET WITH NO
SIGNIFICANT WEATHER AND/OR OBSTRUCTIONS TO VISIBILITY. WIND
SPEEDS ARE IN MILES-PER-HOUR.



USA.gov is the U.S. government's official web portal to all federal, state and local government web resources and services.